Oakland, MD

5:59 AM EDT on October 19, 2017 (GMT -0400)
Oakland

Weather History for K2G4 - May, 2013

Change the Weather History Date:

Thursday, May 30, 2013

  Actual Average (KMGW) Record (KMGW)
Temperature  
Mean Temperature 70 °F -  
Max Temperature 80 °F 76 °F 93 °F (2006)
Min Temperature 59 °F 55 °F 33 °F (1930)
Cooling Degree Days 4    
Growing Degree Days 20 (Base 50)    
Moisture  
Dew Point 57 °F    
Average Humidity 64    
Maximum Humidity 94    
Minimum Humidity 37    
Precipitation  
Precipitation 0.00 in - - ()
Sea Level Pressure  
Sea Level Pressure 30.27 in    
Wind  
Wind Speed 6 mph (SW)    
Max Wind Speed 10 mph    
Max Gust Speed -    
Visibility 10 miles    
Events      
Averages and records for this station are not official NWS values.
T = Trace of Precipitation, MM = Missing Value Source: NWS Daily Summary

Daily Weather History Graph

Daily Weather History Graph

Search for Another Location

Airport or City:

Trip Planner

Search our weather history database for the weather conditions in past years. The results will help you decide how hot, cold, wet, or windy it might be!

Date:

Astronomy

May. 30, 2013 Rise Set
Actual Time 5:52 AM EDT 8:37 PM EDT
Civil Twilight 5:20 AM EDT 9:09 PM EDT
Nautical Twilight 4:41 AM EDT 9:49 PM EDT
Astronomical Twilight 3:56 AM EDT 10:34 PM EDT
Moon 12:38 AM EDT (5/30) 11:58 AM EDT (5/30)
Length of Visible Light 15h 48m
Length of Day
14h 45m
Waning Gibbous, 62% of the Moon is Illuminated
May 30
Waning Gibbous
May 31
Last Quarter
Jun 8
New
Jun 16
First Quarter
Jun 23
Full

Hourly Weather History & Observations

Time (EDT) Temp. Dew Point Humidity Pressure Visibility Wind Dir Wind Speed Gust Speed Precip Events Conditions
12:00 AM 66.2 °F 55.4 °F 68% 30.22 in 10.0 mi SW 6.9 mph - N/A   Clear
12:20 AM 66.2 °F 55.4 °F 68% 30.22 in 10.0 mi WSW 6.9 mph - N/A   Clear
12:40 AM 66.2 °F 55.4 °F 68% 30.22 in 10.0 mi WSW 6.9 mph - N/A   Clear
1:00 AM 66.2 °F 55.4 °F 68% 30.23 in 10.0 mi WSW 5.8 mph - N/A   Clear
1:20 AM 66.2 °F 55.4 °F 68% 30.23 in 10.0 mi WSW 8.1 mph - N/A   Clear
1:40 AM 64.4 °F 55.4 °F 73% 30.24 in 10.0 mi WSW 6.9 mph - N/A   Clear
2:00 AM 64.4 °F 55.4 °F 73% 30.24 in 10.0 mi WSW 6.9 mph - N/A   Clear
2:20 AM 64.4 °F 55.4 °F 73% 30.25 in 10.0 mi SW 5.8 mph - N/A   Clear
2:40 AM 64.4 °F 55.4 °F 73% 30.25 in 10.0 mi WSW 5.8 mph - N/A   Clear
3:00 AM 64.4 °F 57.2 °F 77% 30.24 in 10.0 mi WSW 5.8 mph - N/A   Clear
3:20 AM 64.4 °F 57.2 °F 77% 30.25 in 10.0 mi SW 5.8 mph - N/A   Clear
3:40 AM 64.4 °F 57.2 °F 77% 30.25 in 10.0 mi WSW 6.9 mph - N/A   Clear
4:00 AM 64.4 °F 57.2 °F 77% 30.25 in 10.0 mi SW 4.6 mph - N/A   Clear
4:20 AM 64.4 °F 57.2 °F 77% 30.25 in 10.0 mi SW 5.8 mph - N/A   Clear
4:40 AM 62.6 °F 55.4 °F 77% 30.26 in 10.0 mi SSW 4.6 mph - N/A   Clear
5:00 AM 59.0 °F 57.2 °F 94% 30.27 in 10.0 mi SSW 5.8 mph - N/A   Clear
5:20 AM 62.6 °F 57.2 °F 82% 30.28 in 10.0 mi SW 6.9 mph - N/A   Clear
5:40 AM 62.6 °F 57.2 °F 82% 30.28 in 10.0 mi SW 6.9 mph - N/A   Clear
6:00 AM 62.6 °F 57.2 °F 82% 30.28 in 10.0 mi SW 5.8 mph - N/A   Clear
6:20 AM 62.6 °F 57.2 °F 82% 30.29 in 10.0 mi SW 4.6 mph - N/A   Clear
6:40 AM 62.6 °F 57.2 °F 82% 30.29 in 10.0 mi SW 5.8 mph - N/A   Clear
7:00 AM 64.4 °F 59.0 °F 83% 30.29 in 10.0 mi SSW 4.6 mph - N/A   Clear
7:20 AM 64.4 °F 59.0 °F 83% 30.29 in 10.0 mi SSW 4.6 mph - N/A   Clear
7:40 AM 64.4 °F 59.0 °F 83% 30.29 in 10.0 mi SSW 4.6 mph - N/A   Clear
8:00 AM 66.2 °F 60.8 °F 83% 30.29 in 10.0 mi SSW 4.6 mph - N/A   Clear
8:20 AM 68.0 °F 60.8 °F 78% 30.30 in 10.0 mi SSW 6.9 mph - N/A   Clear
8:40 AM 69.8 °F 60.8 °F 73% 30.30 in 10.0 mi SW 5.8 mph - N/A   Clear
9:00 AM 69.8 °F 60.8 °F 73% 30.31 in 10.0 mi SW 6.9 mph - N/A   Clear
9:20 AM 71.6 °F 60.8 °F 69% 30.31 in 10.0 mi WSW 5.8 mph - N/A   Clear
9:40 AM 71.6 °F 60.8 °F 69% 30.32 in 10.0 mi WSW 5.8 mph - N/A   Clear
10:00 AM 73.4 °F 60.8 °F 65% 30.32 in 10.0 mi WSW 6.9 mph - N/A   Clear
10:20 AM 73.4 °F 60.8 °F 65% 30.32 in 10.0 mi SW 8.1 mph - N/A   Clear
10:40 AM 75.2 °F 59.0 °F 57% 30.32 in 10.0 mi West 6.9 mph - N/A   Clear
11:00 AM 75.2 °F 59.0 °F 57% 30.32 in 10.0 mi West 5.8 mph - N/A   Clear
11:20 AM 75.2 °F 57.2 °F 53% 30.31 in 10.0 mi WNW 5.8 mph - N/A   Clear
11:40 AM 77.0 °F 59.0 °F 54% 30.31 in 10.0 mi WSW 4.6 mph - N/A   Scattered Clouds
12:00 PM 73.4 °F 55.4 °F 53% 30.31 in 10.0 mi WNW 4.6 mph - N/A   Mostly Cloudy
12:20 PM 75.2 °F 55.4 °F 50% 30.31 in 10.0 mi WNW 4.6 mph - N/A   Mostly Cloudy
12:40 PM 77.0 °F 57.2 °F 50% 30.31 in 10.0 mi WSW 4.6 mph - N/A   Mostly Cloudy
1:00 PM 77.0 °F 55.4 °F 47% 30.31 in 10.0 mi West 6.9 mph - N/A   Scattered Clouds
1:20 PM 75.2 °F 57.2 °F 53% 30.30 in 10.0 mi West 4.6 mph - N/A   Mostly Cloudy
1:40 PM 78.8 °F 53.6 °F 42% 30.29 in 10.0 mi SW 5.8 mph - N/A   Scattered Clouds
2:00 PM 77.0 °F 55.4 °F 47% 30.28 in 10.0 mi WSW 5.8 mph - N/A   Mostly Cloudy
2:20 PM 78.8 °F 53.6 °F 42% 30.28 in 10.0 mi WNW 4.6 mph - N/A   Scattered Clouds
2:40 PM 80.6 °F 51.8 °F 37% 30.27 in 10.0 mi Calm Calm - N/A   Scattered Clouds
3:00 PM 78.8 °F 51.8 °F 39% 30.27 in 10.0 mi West 6.9 mph - N/A   Clear
3:20 PM 80.6 °F 51.8 °F 37% 30.27 in 10.0 mi WNW 5.8 mph - N/A   Clear
3:40 PM 80.6 °F 51.8 °F 37% 30.26 in 10.0 mi Calm Calm - N/A   Clear
4:00 PM 80.6 °F 51.8 °F 37% 30.26 in 10.0 mi SW 6.9 mph - N/A   Clear
4:20 PM 80.6 °F 51.8 °F 37% 30.26 in 10.0 mi West 4.6 mph - N/A   Scattered Clouds
4:40 PM 80.6 °F 51.8 °F 37% 30.26 in 10.0 mi West 8.1 mph - N/A   Mostly Cloudy
5:00 PM 80.6 °F 51.8 °F 37% 30.25 in 10.0 mi SW 5.8 mph - N/A   Overcast
5:20 PM 78.8 °F 51.8 °F 39% 30.25 in 10.0 mi Calm Calm - N/A   Mostly Cloudy
5:40 PM 78.8 °F 53.6 °F 42% 30.25 in 7.0 mi Calm Calm - N/A   Mostly Cloudy
6:00 PM 77.0 °F 55.4 °F 47% 30.25 in 10.0 mi South 8.1 mph - N/A   Overcast
6:20 PM 77.0 °F 59.0 °F 54% 30.25 in 10.0 mi South 10.4 mph - N/A   Scattered Clouds
6:40 PM 77.0 °F 59.0 °F 54% 30.25 in 10.0 mi SE 6.9 mph - N/A   Clear
7:00 PM 75.2 °F 59.0 °F 57% 30.24 in 10.0 mi SSE 5.8 mph - N/A   Clear
7:20 PM 75.2 °F 59.0 °F 57% 30.24 in 10.0 mi South 5.8 mph - N/A   Clear
7:40 PM 73.4 °F 59.0 °F 61% 30.24 in 10.0 mi SSE 5.8 mph - N/A   Clear
8:00 PM 73.4 °F 59.0 °F 61% 30.23 in 10.0 mi SSE 4.6 mph - N/A   Clear
8:20 PM 71.6 °F 59.0 °F 64% 30.23 in 10.0 mi SE 6.9 mph - N/A   Clear
8:40 PM 71.6 °F 59.0 °F 64% 30.23 in 10.0 mi SE 8.1 mph - N/A   Clear
9:00 PM 69.8 °F 59.0 °F 68% 30.22 in 10.0 mi ESE 6.9 mph - N/A   Clear
9:20 PM 69.8 °F 59.0 °F 68% 30.23 in 10.0 mi SE 6.9 mph - N/A   Clear
9:40 PM 69.8 °F 60.8 °F 73% 30.23 in 10.0 mi SE 6.9 mph - N/A   Clear
10:00 PM 68.0 °F 60.8 °F 78% 30.24 in 10.0 mi SE 6.9 mph - N/A   Clear
10:20 PM 68.0 °F 60.8 °F 78% 30.24 in 10.0 mi SE 6.9 mph - N/A   Clear
10:40 PM 68.0 °F 60.8 °F 78% 30.24 in 10.0 mi SSE 9.2 mph - N/A   Clear
11:00 PM 68.0 °F 60.8 °F 78% 30.24 in 10.0 mi SSE 9.2 mph - N/A   Clear
11:20 PM 68.0 °F 59.0 °F 73% 30.23 in 10.0 mi SSE 9.2 mph - N/A   Clear
11:40 PM 66.2 °F 57.2 °F 73% 30.23 in 10.0 mi South 9.2 mph - N/A   Clear